{"data":{"norad_id":60246,"epoch":"2026-05-25T03:14:54.683232Z","epoch_age_seconds":66815,"freshness":"FRESH","line1":"1 60246U 24125J   26145.13535513  .00054369  00000+0  77694-3 0  9998","line2":"2 60246  97.2117 357.3826 0021076 264.9784  94.9065 15.55814065103802","mean_motion":15.55814065,"eccentricity":0.0021076,"inclination_deg":97.2117,"raan_deg":357.3826,"arg_perigee_deg":264.9784,"mean_anomaly_deg":94.9065,"bstar":0.00077694,"rev_number":10380,"period_min":92.556047177784,"perigee_km":385.50212156765,"apogee_km":414.07242797066,"semimajor_km":6777.9242747692,"source":"CELESTRAK","updated_at":"2026-05-25T13:38:01.931743Z"}}